Home   Weather   Hohhot   Past weeks

Flag for China Past Weather in Hohhot, Inner Mongolia, China — Yesterday and Last 2 Weeks

Now
72 °F

Scattered clouds.


Feels Like: 76 °F
Forecast: 64 / 74 °F
Wind: 3 mph from Northeast

Location: Hohhot Airport

Current Time: Jul 24, 2017 at 12:53:49 pm

Latest Report: Jul 24, 2017 at 12:00 pm


Visibility: N/A

Pressure: 29.92 "Hg (26.49 "Hg at 1053m altitude)

Humidity: 61%

Dew Point: 57 °F

Location of HohhotLocation

Past Weather in Hohhot — Graph

°F

Hohhot Temperature Yesterday

Maximum temperature yesterday: 86 °F (at 4:00 pm)
Minimum temperature yesterday: 73 °F (at 2:00 am)
Average temperature yesterday: 80 °F

High & Low Weather Summary for the Past Weeks

 TemperatureHumidityPressure
High95 °F (Jul 12, 4:00 pm)94% (Jul 22, 10:00 am)29.98 "Hg (Jul 22, 10:00 am)
Low55 °F (Jul 10, 4:00 am)18% (Jul 10, 6:00 pm)29.62 "Hg (Jul 13, 6:00 pm)
Average79 °F49%29.80 "Hg
* Reported Jul 9 11:00 am — Jul 24 11:00 am, Hohhot. Weather by CustomWeather, © 2017

Note: Actual official high and low records may vary slightly from our data, if they occured in-between our weather recording intervals... More about our weather records

Advertising

Hohhot Weather History for the Previous 24 Hours

Scroll right to see more
 ConditionsComfort  
Time TempWeatherWind HumidityBarometerVisibility
11:00 am
Mon, Jul 24
70 °FPartly sunny.1 mph73%29.95 "HgN/A
10:00 am68 °FLight rain. Partly sunny.1 mph78%29.92 "HgN/A
9:00 am68 °FLight rain. Partly sunny.3 mph78%29.92 "HgN/A
8:00 am72 °FPartly sunny.3 mph61%29.89 "HgN/A
7:00 am70 °FScattered clouds.1 mph69%29.89 "HgN/A
6:00 am72 °FScattered clouds.6 mph57%29.86 "HgN/A
5:00 am70 °FPassing clouds.6 mph69%29.86 "HgN/A
4:00 am72 °FPassing clouds.3 mph65%29.86 "HgN/A
3:00 am73 °FPassing clouds.13 mph57%29.86 "HgN/A
2:00 am75 °FPassing clouds.3 mph57%29.86 "HgN/A
1:00 am77 °FPassing clouds.1 mph54%29.86 "HgN/A
12:00 am79 °FPassing clouds.3 mph48%29.86 "HgN/A
11:00 pm
Sun, Jul 23
77 °FPassing clouds.1 mph54%29.86 "HgN/A
10:00 pm81 °FPassing clouds.3 mph45%29.86 "HgN/A
9:00 pm81 °FPassing clouds.6 mph45%29.86 "HgN/A
8:00 pm82 °FPassing clouds.6 mph45%29.83 "HgN/A
7:00 pm82 °FWarm.8 mph48%29.83 "HgN/A
6:00 pm84 °FScattered clouds.8 mph45%29.80 "HgN/A
5:00 pm84 °FScattered clouds.6 mph45%29.80 "HgN/A
4:00 pm86 °FScattered clouds.3 mph43%29.80 "HgN/A
3:00 pm84 °FScattered clouds.8 mph51%29.80 "HgN/A
2:00 pm84 °FScattered clouds.6 mph51%29.80 "HgN/A
1:00 pm84 °FScattered clouds.8 mph55%29.83 "HgN/A
12:00 pm82 °FScattered clouds.8 mph58%29.83 "HgN/A
Weather by CustomWeather, © 2017

See weather overviewHow to use our weather pages